SSEC Globe Logo

Space Science and Engineering Center

Wisconsin State Observations

ASUS43 KMKX 181100                                              2017291 1100
RWRWI
WISCONSIN REGIONAL WEATHER ROUNDUP
NATIONAL WEATHER SERVICE MILWAUKEE/SULLIVAN WI
NOTE: "FAIR" INDICATES FEW OR NO CLOUDS BELOW 12,000 FEET WITH NO
SIGNIFICANT WEATHER AND/OR OBSTRUCTIONS TO VISIBILITY.

CITY           SKY/WX    TMP DP  RH WIND       PRES   REMARKS
SUPERIOR ARPT  CLEAR     49  43  79 SW3       29.79S
ASHLAND        CLEAR     53  43  68 S5        29.82F
HAYWARD        CLEAR     50  42  74 S6        29.86S
SIREN          CLEAR     49  42  77 S6        29.83F
CUMBERLAND     CLEAR     45  41  87 S3        29.87S
RICE LAKE      CLEAR     47  43  87 E3        29.90S
CHETEK         CLEAR     46  44  93 E10       29.89F
LADYSMITH      CLEAR     49  44  81 S6        29.92S
EAU CLAIRE     NOT AVBL
MENOMONIE      CLEAR     48  43  83 E5        29.90S
NEW RICHMOND   CLEAR     50  42  74 S6        29.87S
OSCEOLA        CLEAR     49  43  80 SE6       29.88S


CITY           SKY/WX    TMP DP  RH WIND       PRES   REMARKS
MANITOWISH WTR CLEAR     44  44 100 S6        29.90F
ARBOR VITAE    CLEAR     49  45  84 S6        29.92S
WOODRUFF       CLEAR     49  45  84 S6        29.92S
RHINELANDER    CLEAR     50  44  80 SW8       29.94F
EAGLE RIVER    CLEAR     43  41  93 CALM      29.93S
LAND O LAKES   CLEAR     46  42  85 CALM      29.93F
PHILLIPS       CLEAR     47  43  88 S3        29.91S
TOMAHAWK       CLEAR     41  40  97 CALM      29.95R
MEDFORD        CLEAR     48  42  80 S6        29.94S
MERRILL        CLEAR     49  44  82 S6        29.95F


CITY           SKY/WX    TMP DP  RH WIND       PRES   REMARKS
WAUSAU         CLEAR     48  44  86 S6        29.95F
MOSINEE        NOT AVBL
MARSHFIELD     CLEAR     46  41  82 S8        29.95F
STEVENS POINT  CLEAR     46  42  85 S6        30.00R
WAUPACA        CLEAR     48  43  83 S3        30.01S
WAUTOMA        CLEAR     38  37  97 CALM      30.03R
WISC RAPIDS    CLEAR     49  43  80 S7        30.00S
CAMP DOUGLAS   NOT AVBL


CITY           SKY/WX    TMP DP  RH WIND       PRES   REMARKS
ANTIGO         CLEAR     43  41  92 S7        29.98S
SHAWANO        CLEAR     50  44  79 CALM      30.00R
OCONTO         CLEAR     51  43  74 SW3       30.00R
STURGEON BAY   CLEAR     52  43  71 S8        30.02R
GREEN BAY      CLEAR     52  46  80 S7        30.02R
MANITOWOC      CLEAR     50  42  74 S3        30.05R
APPLETON       CLEAR     50  39  66 SW10      30.01S
CLINTONVILLE   NOT AVBL
OSHKOSH        CLEAR     50  43  77 S14       30.02S


CITY           SKY/WX    TMP DP  RH WIND       PRES   REMARKS
LA CROSSE      CLEAR     55  46  71 S10       29.96S
SPARTA         CLEAR     44  42  92 CALM      29.99R
VIROQUA        CLEAR     49  45  83 S6        30.00R
BOSCOBEL       CLEAR     41  39  93 CALM      30.03S
PRAIRIE DU CHI CLEAR     51  42  71 E5        30.01S
PLATTEVILLE    CLEAR     48  44  86 S7        30.05S

CITY           SKY/WX    TMP DP  RH WIND       PRES   REMARKS
REEDSBURG      CLEAR     51  43  75 S7        30.02S
BARABOO/DELLS  CLEAR     51  42  70 S10       30.03R
LONE ROCK      CLEAR     48  43  82 SE6       30.04S
MINERAL POINT  CLEAR     48  45  87 SE7       30.05S
MADISON        CLEAR     50  42  74 S10       30.06S
MIDDLETON      CLEAR     50  42  73 S9        30.06S
WATERTOWN      CLEAR     47  43  84 S7        30.07S
MONROE         CLEAR     46  41  81 S12       30.07S
JANESVILLE     CLEAR     50  41  71 S6        30.09S


CITY           SKY/WX    TMP DP  RH WIND       PRES   REMARKS
MILWAUKEE      CLEAR     51  41  68 S8        30.11R
WAUKESHA       CLEAR     48  39  71 SW7       30.10S
MILWAUKEE/TIMM CLEAR     50  37  62 S7        30.10R
RACINE         CLEAR     50  41  71 SW10      30.13R
BURLINGTON     CLEAR     45  41  86 S6        30.12R
KENOSHA        CLEAR     49  40  71 S7        30.13R
FOND DU LAC    CLEAR     52  41  66 SW8       30.04S
SHEBOYGAN      CLEAR     48  43  82 S7        30.06R
WEST BEND      CLEAR     52  39  62 SW7       30.07S
JUNEAU         CLEAR     49  42  76 S7        30.07S
LSZ147-162-181200-
LAKE SUPERIOR

STATION/POSITION TIME  TEMP    WIND        PRES    WAVE
                       AIR SEA DIR/SP/G            HT/PER
                 (UTC) (F)     (DEG/KT/KT) (MB)    (FT/S)
W MID LAKE BUOY  0950   56 53              1008.8S   2/ 4
DEVILS ISLAND    1000   57     190/  6/  7 1009.1R
PORT WING        0940          210/  7/ 11 1009.1S
SAXON HARBOR     1030   58     200/  8/ 15 1009.5S

LMZ867-665-643>646-181200-
LAKE MICHIGAN

STATION/POSITION TIME  TEMP    WIND        PRES    WAVE
                       AIR SEA DIR/SP/G            HT/PER
                 (UTC) (F)     (DEG/KT/KT) (MB)    (FT/S)
S GREEN BAY BUOY 1030   58 58  200/ 16/ 21 1015.5R
N MID LAKE BUOY  0950   60 59  210/ 16/ 19 1016.0R   5/ 6
NORTHPORT PIER   1040   54     180/  3/  6 1015.6R
KEWAUNEE LAKESHO 1030   53     200/  8/ 10 1015.9R
SHEBOYGAN LAKESH 1000   54     200/ 10/ 11 1017.5R
PORT WASHINGTON  1040   51     230/  3/  5 1019.6R
MILWAUKEE LAKESH 1030   54     220/ 10/ 13   N/A
S MID LAKE BUOY  0950   60 61  240/ 19/ 23 1020.4R   4/ 5
KENOSHA   LAKESH 1000   53     200/  9/ 12 1019.6
TC  - TEMPERATURE IN CELSIUS
VSB - VISIBILITY IN STATUTE MILES
WCI - WIND CHILL INDEX
HX  - HEAT INDEX